Regional Weather Roundup
Issued by NWS

Home | Current Version | Previous Version | Graphics & Text | Print | Product List | Glossary On
Versions: 1 2 3 4 5 6 7 8 9 10 11 12 13 14 15 16 17 18 19 20 21 22 23 24 25 26 27 28 29 30 31 32 33 34 35 36 37 38 39 40 41 42 43 44 45 46 47 48 49 50
000
ASUS45 KPSR 280610
RWRAZ

ARIZONA REGIONAL HOURLY WEATHER ROUNDUP
NATIONAL WEATHER SERVICE PHOENIX AZ
1100 PM MST FRI MAR 27 2015

NOTE: FAIR INDICATES FEW OR NO CLOUDS BELOW 12,000 FEET WITH NO
SIGNIFICANT WEATHER AND/OR OBSTRUCTIONS TO VISIBILITY.

AZZ001>003-036-280700-
NORTHWEST ARIZONA

CITY           SKY/WX    TMP DP  RH WIND       PRES   REMARKS
BULLHEAD CITY  CLEAR     75  25  15 CALM      30.01R
KINGMAN        CLEAR     51  25  36 SE7       30.15S
6HR MIN TEMP:  50; 6HR MAX TEMP:  81;

$$

AZZ004>008-015-016-018-280700-
NORTH CENTRAL ARIZONA

CITY           SKY/WX    TMP DP  RH WIND       PRES   REMARKS
GRAND CANYON   CLEAR     32  20  61 CALM      30.32S
6HR MIN TEMP:  32; 6HR MAX TEMP:  71;

WILLIAMS       CLEAR     43  23  45 S7        30.40S
PRESCOTT       CLEAR     49  24  37 S7        30.25S
6HR MIN TEMP:  49; 6HR MAX TEMP:  76;

FLAGSTAFF      CLEAR     38  19  46 CALM      30.35S
6HR MIN TEMP:  38; 6HR MAX TEMP:  69;

PAYSON         CLEAR     55  23  28 NW5       30.26S
PAGE           CLEAR     64  21  19 SW5       30.16R
6HR MIN TEMP:  62; 6HR MAX TEMP:  77;

$$

AZZ009>014-017-280700-
NORTHEAST ARIZONA

CITY           SKY/WX    TMP DP  RH WIND       PRES   REMARKS
WINSLOW        CLEAR     50  22  33 S8        30.22S
6HR MIN TEMP:  50; 6HR MAX TEMP:  80;

SAINT JOHNS    CLEAR     52  13  21 CALM      30.25R
6HR MIN TEMP:  51; 6HR MAX TEMP:  75;

WINDOW ROCK    CLEAR     40  15  36 CALM      30.31R
6HR MIN TEMP:  39; 6HR MAX TEMP:  72;

SHOW LOW       CLEAR     48  14  25 S7        30.33R
$$

AZZ023-280700-
GREATER PHOENIX AREA

CITY           SKY/WX    TMP DP  RH WIND       PRES   REMARKS
PHOENIX        CLEAR     78  27  15 CALM      30.00R
6HR MIN TEMP:  76; 6HR MAX TEMP:  93;

BUCKEYE        CLEAR     63  30  29 N7        30.01S
LUKE AFB       CLEAR     65  37  35 VRB7      30.00R
6HR MIN TEMP:  65; 6HR MAX TEMP:  91;

DEER VALLEY    CLEAR     71  27  19 NE10      30.02S
6HR MIN TEMP:  67; 6HR MAX TEMP:  89;

SCOTTSDALE     CLEAR     72  29  20 CALM      30.04S
6HR MIN TEMP:  72; 6HR MAX TEMP:  91;

MESA-GATEWAY   CLEAR     64  30  27 VRB6      30.04S
$$

AZZ027-028-280700-
SOUTHWEST MARICOPA COUNTY AND PINAL COUNTY

CITY           SKY/WX    TMP DP  RH WIND       PRES   REMARKS
CASA GRANDE    CLEAR     66  21  18 CALM      30.02S
6HR MIN TEMP:  66; 6HR MAX TEMP:  91;

GILA BEND      FAIR      69  19  15 S9        30.00R
6HR MIN TEMP:  69; 6HR MAX TEMP:  93;

$$

AZZ503-504-507>509-280700-
SOUTHEAST ARIZONA

CITY           SKY/WX    TMP DP  RH WIND       PRES   REMARKS
TUCSON         CLEAR     68  23  18 S8        30.11S
6HR MIN TEMP:  68; 6HR MAX TEMP:  91;

DAVIS-MONTHAN  CLEAR     62  25  23 S7        30.09S
6HR MIN TEMP:  62; 6HR MAX TEMP:  89;

NOGALES        CLEAR     56  18  22 E6        30.18R
6HR MIN TEMP:  56; 6HR MAX TEMP:  85;

SIERRA VISTA   CLEAR     64  13  13 W12       30.22R
6HR MIN TEMP:  64; 6HR MAX TEMP:  81;

DOUGLAS        CLEAR     52  22  30 N7        30.18S
6HR MIN TEMP:  50; 6HR MAX TEMP:  82;

SAFFORD        CLEAR     57  16  20 CALM      30.11R
6HR MIN TEMP:  57; 6HR MAX TEMP:  86;

$$

AZZ020-021-025-026-031-280700-
SOUTHWEST ARIZONA

CITY           SKY/WX    TMP DP  RH WIND       PRES   REMARKS
YUMA           CLEAR     79  38  22 CALM      29.98R
6HR MIN TEMP:  76; 6HR MAX TEMP:  95;

$$

CAZ031-033-041-043-047-048-061-280700-
SOUTHERN CALIFORNIA

CITY           SKY/WX    TMP DP  RH WIND       PRES   REMARKS
DOWNTOWN L.A.  CLEAR     66  56  70 CALM      30.05R
6HR MIN TEMP:  65; 6HR MAX TEMP:  80;

L.A. AIRPORT   CLEAR     62  57  83 SW8       30.05R
6HR MIN TEMP:  62; 6HR MAX TEMP:  72;

SAN DIEGO      FOG       63  61  93 CALM      30.09R VSB 1
6HR MIN TEMP:  63; 6HR MAX TEMP:  75;

BURBANK        CLEAR     73  31  21 NW7       30.05R
6HR MIN TEMP:  72; 6HR MAX TEMP:  90;

ONTARIO        CLEAR     72  39  30 CALM      30.07R
6HR MIN TEMP:  71; 6HR MAX TEMP:  90;

RIVERSIDE      CLEAR     71  43  36 SE3       30.07R
6HR MIN TEMP:  70; 6HR MAX TEMP:  91;

PALM SPRINGS   CLEAR     82  33  17 CALM      30.01R
6HR MIN TEMP:  79; 6HR MAX TEMP:  97;

EL CENTRO NAS  CLEAR     69  38  32 W7        29.96R
6HR MIN TEMP:  69; 6HR MAX TEMP:  94;

IMPERIAL       CLEAR     70  41  34 SW5       29.96R
6HR MIN TEMP:  70; 6HR MAX TEMP:  95;

BLYTHE         CLEAR     72  32  23 N8        29.98R
6HR MIN TEMP:  72; 6HR MAX TEMP:  93;

NEEDLES        CLEAR     77  21  12 S3        30.01R
6HR MIN TEMP:  75; 6HR MAX TEMP:  93;

$$

NVZ020-UTZ003-280700-
SOUTHERN NEVADA-UTAH

CITY           SKY/WX    TMP DP  RH WIND       PRES   REMARKS
LAS VEGAS      CLEAR     73  26  17 SW9       30.02S
6HR MIN TEMP:  72; 6HR MAX TEMP:  88;

SALT LAKE CITY CLEAR     56  35  45 SE7       30.14S
6HR MIN TEMP:  56; 6HR MAX TEMP:  71;

$$

NMZ009-TXZ055-280700-
NEW MEXICO-WEST TEXAS

CITY           SKY/WX    TMP DP  RH WIND       PRES   REMARKS
ALBUQUERQUE    CLEAR     61  16  17 SW6       30.20R
6HR MIN TEMP:  61; 6HR MAX TEMP:  76;

EL PASO        CLEAR     63  19  18 SE8       30.15R
6HR MIN TEMP:  63; 6HR MAX TEMP:  79;

$$


........................KEY........................
SKY/WX - SKY CONDITION/WEATHER
TMP    - TEMPERATURE IN FAHRENHEIT
DP     - DEW POINT IN FAHRENHEIT
RH     - RELATIVE HUMIDITY IN PERCENT
WIND   - DIRECTION AND SPEED IN MILES PER HOUR (MPH)
VRB    - VARIABLE WIND DIRECTION
PRES   - MEAN SEA LEVEL PRESSURE IN INCHES OF MERCURY
         F - FALLING PRESSURE   R - RISING PRESSURE
         S - STEADY PRESSURE
VSB    - VISIBILITY IN MILES
HX     - HEAT INDEX IN FAHRENHEIT
WCI    - WIND CHILL INDEX IN FAHRENHEIT
TC     - TEMPERATURE IN CELSIUS WHICH IS ALSO KNOWN AS
         TEMPERATURE IN CENTIGRADE
AFB    - AIR FORCE BASE
         LUKE AFB IS LUKE AIR FORCE BASE
         DAVIS-MONTHAN IS DAVIS-MONTHAN AIR FORCE BASE
NAS    - NAVAL AIR STATION
         EL CENTRO NAS IS EL CENTRO NAVAL AIR STATION
N/A    - NOT AVAILABLE




USA.gov is the U.S. government's official web portal to all federal, state and local government web resources and services.